SL-8 DEB, 23007

Orbit data source: Space-Track

SL-8 DEB, 23007 is space debris in LEO originally from a launch on Wed, 16 Jun 1993 UTC launched from the Plesetsk Missile And Space Complex (PKMTR). Debris objects in space refer to the collection of defunct objects orbiting the Earth. Examples of debris include non-operational satellites, rocket bodies, and fragments generated from explosions, collisions, or faulty payload assembly.

Loading next visibility...
Identifier
23007, 1993-036C
Orbit
LEO
Country
Flag of CISCIS
Related business
Manufacturer
Unknown
Mission
Spacecraft
Bus & Motor
Unknown
Mass
Unknown
Launch date (UTC)
1993-06-16 (32 years ago)
Launch vehicle
Unknown
Launch site
Plesetsk Missile And Space Complex (PKMTR)
Object type
Payload
Rocket body
Debris
Shape & HBR
Unknown shape, 0.1 m
Radar Cross Section
Small (<0.1 m²)

Expand to show TLE details & history
Last TLE update: 8 hours ago

TLE from 8 hours ago
0 SL-8 DEB
1 23007U 93036C   25300.12896802  .00001819  00000-0  49871-3 0  9990
2 23007  74.0255 191.0769 0011338 203.1691 307.4714 14.47790568696332
Epoch: 2025-10-27T03:05Z
TLE epoch observation values (Epoch: 2025-10-27T03:05:42.836Z)
Latitude
28.27136°
Longitude
-79.89507°
Altitude
731.154 km
Speed
7.495 km/s
True Right ascension
00h 09m 04s
True Declination
28° 07' 39"
Sunlit
Object was in full shadow at epoch
Visualization orbit readout
Latitude
Unknown
Longitude
Unknown
Altitude
Unknown
Speed
Unknown
Apparent Right ascension
Unknown
Apparent Declination
Unknown
Sunlit
N/A
Visualization observer readout
Local Sidereal Time
06:06:20
Azimuth
Unknown
Elevation
Unknown
Doppler factor
Unknown
Orbital elements
Apogee altitude
738.546 km
Perigee altitude
722.426 km
Semi-major axis
7,108.623 km
Eccentricity
0.00113
Inclination
74.0255°
RAAN
191.0769°
Arg. of periapsis
203.1691°
True anomaly
307.3682°
Mean anomaly
307.4714°
Eccentric anomaly
307.41981°
Mean motion
3.6213 °/min
Orbital period
99.41 mins
BSTAR
0.00049871
Loading maneuver chart data...
Computing Atmospheric mass density...

Documentation

Showing up to 5 results
|